Weather History for Rutland, VT

Change the Weather History Date:

Monday, February 6, 2012

  Actual Average Record
Temperature  
Mean Temperature 37 °F -  
Max Temperature 45 °F - 51 °F (2005)
Min Temperature 28 °F - -12 °F (1949)
Degree Days  
Heating Degree Days 28    
Month to date heating degree days 211  
Since 1 July heating degree days 3659  
Cooling Degree Days 0    
Month to date cooling degree days 0  
Year to date cooling degree days 0  
Moisture  
Dew Point 20 °F    
Average Humidity 53    
Maximum Humidity 69    
Minimum Humidity 37    
Precipitation  
Precipitation 0.00 in - 0.47 in (2008)
Month to date precipitation 0.03  
Year to date precipitation 1.26  
Sea Level Pressure  
Sea Level Pressure 29.91 in    
Wind  
Wind Speed 7 mph (SW)    
Max Wind Speed 16 mph    
Max Gust Speed 23 mph    
Visibility 10 miles    
Events      
T = Trace of Precipitation, MM = Missing Value Source: NWS Daily Summary

Daily Weather History Graph

Daily Weather History Graph

Search for Another Location

Airport:

Trip Planner

Search our weather history database for the weather conditions in past years. The results will help you decide how hot, cold, wet, or windy it might be!

Date:

Astronomy

Feb. 06, 2012 Rise Set
Actual Time 7:02 AM EST 5:09 PM EST
Civil Twilight 6:32 AM EST 5:39 PM EST
Nautical Twilight 5:58 AM EST 6:13 PM EST
Astronomical Twilight 5:25 AM EST 6:46 PM EST
Moon 4:09 PM EST (2/6) 5:54 AM EST (2/6)
Length of Visible Light 11h 06m
Length of Day
10h 06m
Waxing Gibbous, 98% of the Moon is Illuminated
Feb 6
Waxing Gibbous
Feb 7
Full
Feb 14
Last Quarter
Feb 21
New
Feb 29
First Quarter

Hourly Weather History & Observations

Time (EST) Temp. Windchill Dew Point Humidity Pressure Visibility Wind Dir Wind Speed Gust Speed Precip Events Conditions
12:15 AM 28.4 °F 23.3 °F 15.8 °F 59% 30.03 in 10.0 mi SW 4.6 mph - N/A   Overcast
12:35 AM 28.4 °F 21.2 °F 15.8 °F 59% 30.03 in 10.0 mi WSW 6.9 mph - N/A   Overcast
1:15 AM 28.4 °F 23.3 °F 15.8 °F 59% 30.02 in 10.0 mi SSW 4.6 mph - N/A   Overcast
1:35 AM 28.4 °F 22.2 °F 15.8 °F 59% 30.02 in 10.0 mi SSW 5.8 mph - N/A   Overcast
1:55 AM 28.4 °F 22.2 °F 15.8 °F 59% 30.01 in 10.0 mi South 5.8 mph - N/A   Overcast
2:15 AM 28.4 °F - 15.8 °F 59% 30.01 in 10.0 mi Calm Calm - N/A   Overcast
2:35 AM 28.4 °F 24.6 °F 15.8 °F 59% 30.00 in 10.0 mi SSW 3.5 mph - N/A   Overcast
2:55 AM 28.4 °F 23.3 °F 15.8 °F 59% 29.98 in 10.0 mi SSW 4.6 mph - N/A   Overcast
3:15 AM 28.4 °F 22.2 °F 17.6 °F 64% 29.97 in 10.0 mi SW 5.8 mph - N/A   Mostly Cloudy
3:35 AM 28.4 °F 23.3 °F 17.6 °F 64% 29.96 in 10.0 mi WSW 4.6 mph - N/A   Partly Cloudy
3:55 AM 28.4 °F - 17.6 °F 64% 29.96 in 10.0 mi Calm Calm - N/A   Clear
4:15 AM 30.2 °F - 19.4 °F 64% 29.95 in 10.0 mi Calm Calm - N/A   Partly Cloudy
4:55 AM 30.2 °F - 19.4 °F 64% 29.96 in 10.0 mi Calm Calm - N/A   Overcast
5:15 AM 30.2 °F 25.4 °F 19.4 °F 64% 29.96 in 10.0 mi SSW 4.6 mph - N/A   Mostly Cloudy
5:35 AM 28.4 °F - 19.4 °F 69% 29.96 in 10.0 mi Calm Calm - N/A   Mostly Cloudy
5:55 AM 28.4 °F - 19.4 °F 69% 29.95 in 10.0 mi Calm Calm - N/A   Partly Cloudy
6:35 AM 28.4 °F - 21.2 °F 74% 29.95 in 10.0 mi Calm Calm - N/A   Mostly Cloudy
6:55 AM 28.4 °F 22.2 °F 19.4 °F 69% 29.95 in 10.0 mi WSW 5.8 mph - N/A   Scattered Clouds
7:15 AM 28.4 °F 24.6 °F 21.2 °F 74% 29.95 in 10.0 mi WSW 3.5 mph - N/A   Mostly Cloudy
7:35 AM 30.2 °F 23.4 °F 21.2 °F 69% 29.95 in 9.0 mi SW 6.9 mph - N/A   Overcast
7:55 AM 30.2 °F 26.7 °F 21.2 °F 69% 29.96 in 10.0 mi SSW 3.5 mph - N/A   Overcast
8:15 AM 30.2 °F 26.7 °F 21.2 °F 69% 29.96 in 10.0 mi SSW 3.5 mph - N/A   Overcast
8:35 AM 32.0 °F 24.2 °F 23.0 °F 69% 29.95 in 10.0 mi SSW 9.2 mph - N/A   Overcast
9:15 AM 32.0 °F 24.2 °F 23.0 °F 69% 29.95 in 10.0 mi WSW 9.2 mph - N/A   Mostly Cloudy
9:35 AM 32.0 °F 24.2 °F 23.0 °F 69% 29.95 in 10.0 mi SW 9.2 mph - N/A   Overcast
9:55 AM 32.0 °F 24.2 °F 23.0 °F 69% 29.95 in 10.0 mi WSW 9.2 mph - N/A   Overcast
10:15 AM 33.8 °F 25.8 °F 24.8 °F 70% 29.94 in 10.0 mi WSW 10.4 mph - N/A   Overcast
10:35 AM 33.8 °F 24.8 °F 23.0 °F 65% 29.93 in 10.0 mi SSW 12.7 mph 16.1 mph N/A   Mostly Cloudy
10:55 AM 35.6 °F 27.1 °F 24.8 °F 65% 29.92 in 10.0 mi WSW 12.7 mph 23.0 mph N/A   Partly Cloudy
11:15 AM 35.6 °F 29.9 °F 24.8 °F 65% 29.92 in 9.0 mi WSW 6.9 mph 18.4 mph N/A   Partly Cloudy
12:15 PM 37.4 °F 32.1 °F 24.8 °F 60% 29.88 in 10.0 mi SW 6.9 mph - N/A   Clear
12:35 PM 39.2 °F 32.0 °F 24.8 °F 56% 29.88 in 10.0 mi WSW 11.5 mph 17.3 mph N/A   Clear
12:55 PM 41.0 °F 34.3 °F 24.8 °F 53% 29.87 in 9.0 mi SW 11.5 mph - N/A   Clear
1:15 PM 41.0 °F 34.3 °F 23.0 °F 49% 29.86 in 10.0 mi WSW 11.5 mph 17.3 mph N/A   Clear
1:35 PM 42.8 °F 36.2 °F 24.8 °F 49% 29.84 in 10.0 mi WSW 12.7 mph 17.3 mph N/A   Clear
1:55 PM 42.8 °F 36.6 °F 24.8 °F 49% 29.83 in 10.0 mi WSW 11.5 mph - N/A   Clear
2:15 PM 42.8 °F 37.0 °F 24.8 °F 49% 29.83 in 10.0 mi WSW 10.4 mph 20.7 mph N/A   Clear
2:35 PM 44.6 °F 38.1 °F 23.0 °F 43% 29.82 in 10.0 mi West 13.8 mph 17.3 mph N/A   Clear
2:55 PM 44.6 °F 37.4 °F 24.8 °F 46% 29.81 in 10.0 mi WSW 16.1 mph 21.9 mph N/A   Clear
3:35 PM 44.6 °F 39.7 °F 21.2 °F 39% 29.81 in 10.0 mi WSW 9.2 mph 19.6 mph N/A   Clear
3:55 PM 44.6 °F 39.2 °F 21.2 °F 39% 29.81 in 10.0 mi WSW 10.4 mph 21.9 mph N/A   Clear
4:15 PM 44.6 °F 39.7 °F 21.2 °F 39% 29.81 in 10.0 mi WSW 9.2 mph - N/A   Clear
4:35 PM 44.6 °F 39.2 °F 19.4 °F 37% 29.81 in 10.0 mi SW 10.4 mph - N/A   Clear
4:55 PM 44.6 °F 42.2 °F 19.4 °F 37% 29.82 in 10.0 mi WSW 4.6 mph - N/A   Clear
5:15 PM 44.6 °F 39.2 °F 19.4 °F 37% 29.82 in 10.0 mi WSW 10.4 mph - N/A   Clear
5:35 PM 44.6 °F 39.7 °F 19.4 °F 37% 29.82 in 10.0 mi SW 9.2 mph - N/A   Clear
5:55 PM 44.6 °F 39.2 °F 19.4 °F 37% 29.83 in 10.0 mi WSW 10.4 mph - N/A   Clear
6:35 PM 42.8 °F 38.6 °F 19.4 °F 39% 29.84 in 10.0 mi WSW 6.9 mph - N/A   Clear
6:55 PM 42.8 °F 38.0 °F 19.4 °F 39% 29.84 in 10.0 mi WSW 8.1 mph - N/A   Clear
7:15 PM 42.8 °F 37.0 °F 19.4 °F 39% 29.85 in 10.0 mi WSW 10.4 mph - N/A   Clear
7:35 PM 42.8 °F 37.0 °F 19.4 °F 39% 29.85 in 10.0 mi West 10.4 mph 16.1 mph N/A   Clear
7:55 PM 42.8 °F 37.5 °F 19.4 °F 39% 29.86 in 10.0 mi WSW 9.2 mph - N/A   Clear
8:15 PM 42.8 °F 37.5 °F 19.4 °F 39% 29.86 in 10.0 mi West 9.2 mph - N/A   Clear
8:55 PM 41.0 °F 38.0 °F 19.4 °F 42% 29.86 in 10.0 mi West 4.6 mph - N/A   Clear
9:15 PM 39.2 °F 37.0 °F 19.4 °F 45% 29.86 in 10.0 mi WNW 3.5 mph - N/A   Clear
9:35 PM - - - N/A% 29.86 in 10.0 mi North 4.6 mph - N/A   Clear
9:55 PM 35.6 °F - 19.4 °F 52% 29.86 in 10.0 mi Calm Calm - N/A   Clear
10:15 PM 37.4 °F 34.9 °F 19.4 °F 48% 29.86 in 10.0 mi NNE 3.5 mph - N/A   Clear
10:35 PM 35.6 °F 31.7 °F 19.4 °F 52% 29.87 in 10.0 mi NNW 4.6 mph - N/A   Clear
10:55 PM 35.6 °F 32.8 °F 19.4 °F 52% 29.86 in 10.0 mi WNW 3.5 mph - N/A   Clear
11:35 PM 30.2 °F - 19.4 °F 64% 29.88 in 10.0 mi Calm Calm - N/A   Clear
11:55 PM 33.8 °F 27.7 °F 21.2 °F 60% 29.88 in 10.0 mi WNW 6.9 mph - N/A   Scattered Clouds